Weather in Kryukovo

Russia / Moscow Oblast     55°05′56″N   37°32′47″E
temp.,
°C
wind,
m/s
gust,
m/s
humid.,
%
clouds,
%
prec.,
mm/h
press.,
hPa
HPBL,
m
25 february, thu
thu2500:00−12ssw3795100 0.1 1028289
03:00−10sw4995100 0.3 1025306
06:00−5wsw41195100 1.4 1020393
09:00+1wsw61497100 2.1 1016659
12:00+2w513100100 0.7 1014538
15:00+3wnw312100100 0.8 1015408
18:00+2w31099100 0.2 1015337
21:00+2wnw38100100 0.2 1016246
26 february, fri
fri2600:00+2wsw4999100 0.3 1015278
03:00+2w41299100 1.4 1015423
06:00+2wsw51399100 0.3 1012417
09:00+3wsw51398100 0.3 1010490
12:00+3wsw51398100 0.1 1008528
15:00+4w61698100 0.6 1006731
18:00+2w5149282 0.1 1005947
21:00+2wnw6148691 0.2 10061125
27 february, sat
sat2700:000w5148894 0.0 1005717
03:000w5138984 0.0 1005732
06:00+1w5129286 0.0 1004687
09:00+1wnw499893 0.1 1004575
12:00+1wnw4793100 0.1 1004666
15:00+1nw3891100 0.1 1006620
18:000nw399897 0.1 1008493
21:00−1nw399796 0.4 1010428
28 february, sun
sun2800:00−1nw3109793 0.4 1011474
03:00−2nnw4109597 1.1 1012654
06:00−3nnw4109398 0.3 1014625
09:00−3nnw4108999 0.4 1015565
12:00−1nnw488496 0.1 1017767
15:00−1nnw478297 0.1 1018883
18:00−3n4884100 0.1 1019668
21:00−3n3789100 0.2 1022660
1 march, mon
mon100:00−4n2690100 0.1 1024433
03:00−5n259298 0.1 1026375
06:00−5nw2492100 0.0 1028268
09:00−5wnw239195 0.1 1029186
12:00−2w248189 0.0 1030619
15:00−1w468188 0.0 1029530
18:00−3w3109091 0.0 1029370
21:00−2w3109594 0.0 1029436